• In Schweiz
  • Länderverzeichnis
  • Für 7 Tage
  • Wassertemperatur
  • Satellitenkarten
  • Wetterkarte
  • Widgets
  • user-avatar
    Anmelden

    Stündliche Wetter Podlubovo

    Heute, 20 September, Donnerstag

    Zeit Temperatur Niederschläge Wind Luftdruck Luftfeuchtigkeit
    00:00 +7°C° 0.2 mm 4 m/S 731 mmHg 93%
    01:00 +7°C° 0.2 mm 4 m/S 731 mmHg 93%
    02:00 +7°C° 0.3 mm 4 m/S 731 mmHg 93%
    03:00 +7°C° 0.3 mm 4 m/S 731 mmHg 93%
    04:00 +7°C° 0 mm 5 m/S 731 mmHg 93%
    05:00 +7°C° 0.2 mm 5 m/S 731 mmHg 93%
    06:00 +7°C° 0.2 mm 5 m/S 732 mmHg 93%
    07:00 +7°C° 0.2 mm 5 m/S 732 mmHg 92%
    08:00 +7°C° 0.1 mm 5 m/S 732 mmHg 92%
    09:00 +7°C° 0.1 mm 5 m/S 732 mmHg 91%
    10:00 +7°C° 0 mm 4 m/S 732 mmHg 91%
    11:00 +7°C° 0.2 mm 4 m/S 733 mmHg 91%
    12:00 +7°C° 0.2 mm 4 m/S 733 mmHg 91%
    13:00 +7°C° 0.2 mm 4 m/S 734 mmHg 90%
    14:00 +8°C° 0.1 mm 4 m/S 734 mmHg 90%
    15:00 +8°C° 0.1 mm 4 m/S 734 mmHg 90%
    16:00 +8°C° 0 mm 4 m/S 734 mmHg 91%
    17:00 +8°C° 0.2 mm 4 m/S 735 mmHg 92%
    18:00 +8°C° 0.2 mm 4 m/S 735 mmHg 92%
    19:00 +7°C° 0.2 mm 4 m/S 735 mmHg 93%
    20:00 +7°C° 0.1 mm 4 m/S 735 mmHg 93%
    21:00 +8°C° 0.1 mm 3 m/S 735 mmHg 94%
    22:00 +8°C° 0.1 mm 3 m/S 735 mmHg 94%
    23:00 +8°C° 0.1 mm 3 m/S 735 mmHg 94%

    Morgen, 21 September, Freitag

    Zeit Temperatur Niederschläge Wind Luftdruck Luftfeuchtigkeit
    00:00 +8°C° 0.1 mm 3 m/S 735 mmHg 95%
    01:00 +8°C° 0.1 mm 3 m/S 735 mmHg 95%
    02:00 +8°C° 0.1 mm 3 m/S 735 mmHg 95%
    03:00 +8°C° 0.1 mm 3 m/S 736 mmHg 95%
    04:00 +8°C° 0.1 mm 3 m/S 736 mmHg 95%
    05:00 +7°C° 0.1 mm 4 m/S 736 mmHg 95%
    06:00 +7°C° 0.1 mm 4 m/S 736 mmHg 95%
    07:00 +7°C° 0.1 mm 4 m/S 737 mmHg 94%
    08:00 +7°C° 0 mm 4 m/S 737 mmHg 93%
    09:00 +8°C° 0 mm 4 m/S 737 mmHg 91%
    10:00 +8°C° 0 mm 4 m/S 738 mmHg 90%
    11:00 +10°C° 0 mm 4 m/S 738 mmHg 89%
    12:00 +10°C° 0 mm 4 m/S 739 mmHg 87%
    13:00 +11°C° 0 mm 4 m/S 739 mmHg 86%
    14:00 +10°C° 0 mm 4 m/S 739 mmHg 86%
    15:00 +10°C° 0 mm 4 m/S 740 mmHg 86%
    16:00 +10°C° 0 mm 4 m/S 740 mmHg 86%
    17:00 +10°C° 0 mm 4 m/S 740 mmHg 88%
    18:00 +9°C° 0 mm 3 m/S 741 mmHg 89%
    19:00 +9°C° 0 mm 3 m/S 741 mmHg 90%
    20:00 +9°C° 0 mm 2 m/S 742 mmHg 91%
    21:00 +9°C° 0 mm 2 m/S 742 mmHg 92%
    22:00 +9°C° 0 mm 2 m/S 742 mmHg 93%
    23:00 +9°C° 0 mm 2 m/S 743 mmHg 93%

    übermorgen, 22 September, Samstag

    Zeit Temperatur Niederschläge Wind Luftdruck Luftfeuchtigkeit
    00:00 +8°C° 0 mm 2 m/S 743 mmHg 93%
    01:00 +8°C° 0 mm 2 m/S 743 mmHg 94%
    02:00 +8°C° 0 mm 2 m/S 743 mmHg 94%
    03:00 +7°C° 0 mm 2 m/S 744 mmHg 94%
    04:00 +7°C° 0 mm 2 m/S 744 mmHg 94%
    05:00 +6°C° 0 mm 2 m/S 744 mmHg 93%
    06:00 +7°C° 0 mm 1 m/S 744 mmHg 92%
    07:00 +7°C° 0 mm 1 m/S 745 mmHg 92%
    08:00 +8°C° 0 mm 2 m/S 745 mmHg 85%
    09:00 +9°C° 0 mm 2 m/S 745 mmHg 78%
    10:00 +12°C° 0 mm 2 m/S 745 mmHg 72%
    11:00 +13°C° 0 mm 2 m/S 745 mmHg 71%
    12:00 +14°C° 0 mm 3 m/S 745 mmHg 71%
    13:00 +16°C° 0 mm 3 m/S 745 mmHg 71%
    14:00 +16°C° 0 mm 3 m/S 745 mmHg 75%
    15:00 +16°C° 0 mm 3 m/S 745 mmHg 79%
    16:00 +14°C° 0 mm 3 m/S 745 mmHg 83%
    17:00 +15°C° 0 mm 2 m/S 745 mmHg 87%
    18:00 +14°C° 0 mm 2 m/S 745 mmHg 91%
    19:00 +14°C° 0 mm 1 m/S 745 mmHg 94%
    20:00 +13°C° 0 mm 1 m/S 745 mmHg 95%
    21:00 +13°C° 0 mm 1 m/S 746 mmHg 95%
    22:00 +13°C° 0 mm 1 m/S 746 mmHg 95%
    23:00 +13°C° 0 mm 1 m/S 746 mmHg 96%

    23 September, Sonntag

    Zeit Temperatur Niederschläge Wind Luftdruck Luftfeuchtigkeit
    00:00 +13°C° 0 mm 1 m/S 746 mmHg 96%
    01:00 +13°C° 0 mm 1 m/S 746 mmHg 97%
    02:00 +13°C° 0 mm 1 m/S 746 mmHg 97%
    03:00 +12°C° 0 mm 1 m/S 746 mmHg 97%
    04:00 +12°C° 0 mm 1 m/S 746 mmHg 98%
    05:00 +12°C° 0 mm 1 m/S 746 mmHg 98%
    06:00 +13°C° 0 mm 1 m/S 746 mmHg 98%
    07:00 +13°C° 0 mm 1 m/S 746 mmHg 98%
    08:00 +14°C° 0 mm 1 m/S 746 mmHg 95%
    09:00 +15°C° 0 mm 2 m/S 746 mmHg 93%
    10:00 +16°C° 0 mm 2 m/S 746 mmHg 90%
    11:00 +17°C° 0 mm 2 m/S 746 mmHg 87%
    12:00 +18°C° 0 mm 2 m/S 746 mmHg 84%
    13:00 +19°C° 0 mm 2 m/S 746 mmHg 80%
    14:00 +19°C° 0 mm 2 m/S 746 mmHg 80%
    15:00 +19°C° 0 mm 2 m/S 746 mmHg 79%
    16:00 +20°C° 0 mm 2 m/S 746 mmHg 78%
    17:00 +18°C° 0 mm 2 m/S 746 mmHg 83%
    18:00 +17°C° 0 mm 2 m/S 746 mmHg 87%
    19:00 +16°C° 0 mm 2 m/S 746 mmHg 92%
    20:00 +15°C° 0 mm 2 m/S 745 mmHg 93%
    21:00 +15°C° 0 mm 2 m/S 745 mmHg 94%
    22:00 +14°C° 0 mm 2 m/S 745 mmHg 95%
    23:00 +14°C° 0 mm 2 m/S 745 mmHg 95%

    24 September, Montag

    Zeit Temperatur Niederschläge Wind Luftdruck Luftfeuchtigkeit
    00:00 +13°C° 0 mm 2 m/S 745 mmHg 95%
    01:00 +13°C° 0 mm 2 m/S 745 mmHg 95%
    02:00 +13°C° 0 mm 2 m/S 744 mmHg 95%
    03:00 +12°C° 0 mm 3 m/S 744 mmHg 95%
    04:00 +11°C° 0 mm 3 m/S 744 mmHg 95%
    05:00 +11°C° 0 mm 3 m/S 744 mmHg 95%
    06:00 +11°C° 0 mm 3 m/S 744 mmHg 95%
    07:00 +11°C° 0 mm 3 m/S 744 mmHg 94%
    08:00 +13°C° 0 mm 3 m/S 744 mmHg 88%
    09:00 +15°C° 0 mm 4 m/S 744 mmHg 82%
    10:00 +17°C° 0 mm 4 m/S 743 mmHg 77%
    11:00 +18°C° 0 mm 4 m/S 743 mmHg 72%
    12:00 +19°C° 0 mm 5 m/S 743 mmHg 68%
    13:00 +20°C° 0 mm 5 m/S 743 mmHg 63%
    14:00 +20°C° 0 mm 5 m/S 743 mmHg 64%
    15:00 +20°C° 0 mm 4 m/S 742 mmHg 64%
    16:00 +20°C° 0 mm 4 m/S 742 mmHg 64%
    17:00 +19°C° 0 mm 4 m/S 742 mmHg 69%
    18:00 +17°C° 0 mm 3 m/S 742 mmHg 75%
    19:00 +14°C° 0 mm 3 m/S 742 mmHg 80%
    20:00 +14°C° 0 mm 3 m/S 742 mmHg 81%
    21:00 +14°C° 0 mm 3 m/S 742 mmHg 82%
    22:00 +13°C° 0 mm 3 m/S 741 mmHg 83%
    23:00 +13°C° 0 mm 3 m/S 741 mmHg 83%

    25 September, Dienstag

    Zeit Temperatur Niederschläge Wind Luftdruck Luftfeuchtigkeit
    00:00 +13°C° 0 mm 3 m/S 741 mmHg 83%
    01:00 +12°C° 0 mm 4 m/S 741 mmHg 84%
    02:00 +12°C° 0 mm 3 m/S 741 mmHg 84%
    03:00 +12°C° 0 mm 3 m/S 741 mmHg 84%
    04:00 +11°C° 0 mm 3 m/S 741 mmHg 84%
    05:00 +11°C° 0 mm 3 m/S 741 mmHg 83%
    06:00 +11°C° 0 mm 3 m/S 741 mmHg 82%
    07:00 +11°C° 0 mm 3 m/S 741 mmHg 81%
    08:00 +13°C° 0 mm 4 m/S 741 mmHg 73%
    09:00 +15°C° 0 mm 5 m/S 741 mmHg 66%
    10:00 +17°C° 0 mm 5 m/S 741 mmHg 58%
    11:00 +19°C° 0 mm 6 m/S 741 mmHg 56%
    12:00 +20°C° 0 mm 6 m/S 741 mmHg 53%
    13:00 +20°C° 0 mm 6 m/S 740 mmHg 51%
    14:00 +20°C° 0 mm 6 m/S 740 mmHg 53%
    15:00 +20°C° 0 mm 5 m/S 740 mmHg 56%
    16:00 +20°C° 0 mm 4 m/S 740 mmHg 59%
    17:00 +18°C° 0 mm 4 m/S 740 mmHg 63%
    18:00 +17°C° 0 mm 4 m/S 740 mmHg 68%
    19:00 +15°C° 0 mm 4 m/S 740 mmHg 72%
    20:00 +14°C° 0 mm 4 m/S 740 mmHg 75%
    21:00 +13°C° 0 mm 4 m/S 740 mmHg 78%
    22:00 +13°C° 0 mm 4 m/S 740 mmHg 81%
    23:00 +12°C° 0 mm 4 m/S 740 mmHg 81%
    Mehr zeigen